ELECTRON R/B (44372 NORAD) Tracking and Keplerian Element Data

This shows tracking and keplerian element data for the satellite.

Feedback or suggestion? Click here.




ElementValue
Catalog44372
NameELECTRON R/B
Epoch Orbit465
Epoch Day209.90441537
Epoch Year2019
RAAN117.7971
Inclination45.0129
Eccentricity0.0116734
Argument of Perigee61.0447
Mean Anonmoly300.2121
Mean Motion15.65319744
Decay Rate0.00032583
L11 44372U 19037H 19209.90441537 .00032583 93569-5 23843-3 0 9995
L22 44372 45.0129 117.7971 0116734 61.0447 300.2121 15.65319744 4659



Live tracking and technical data element details for ELECTRON R/B (NORAD 44372). ELECTRON R/B can be tracked NOW for your location showing map with azimuth and elevation plus other details from your city location.







IsCatalogInMostPopularTable: catalog: 44372, numindb: 183
Update: records affected: 1



GetName: 44372 ELECTRON R/B

Hit Count: updated at: Sun, 11 Jun 2023 01:01:35 GMT